Location: Maignaut
(43.8886°N, 0.4051°E)
Time: 21:35:41
(UTC+00:00)

Cosmos 540 Rocket - Pass Details

Date: 27 February 2020
Orbit: 739 x 754 km, 74.1° (Epoch: 29 March)

Event Time Altitude Azimuth Distance (km) Brightness Sun altitude
Rises 19:25:08 0° 189° (S) 3,166 6.7 -19.1°
Reaches altitude 10° 19:27:29 10° 187° (S) 2,249 5.9 -19.5°
Maximum altitude 19:32:31 64° 106° (ESE) 829 3.3 -20.4°
Drops below altitude 10° 19:37:36 10° 27° (NNE) 2,275 5.8 -21.3°
Sets 19:39:59 0° 24° (NNE) 3,206 6.6 -21.7°
